EDT,Max TemperatureF,Mean TemperatureF,Min TemperatureF,Max Dew PointF,MeanDew PointF,Min DewpointF,Max Humidity, Mean Humidity, Min Humidity, Max Sea Level PressureIn, Mean Sea Level PressureIn, Min Sea Level PressureIn, Max VisibilityMiles, Mean VisibilityMiles, Min VisibilityMiles, Max Wind SpeedMPH, Mean Wind SpeedMPH, Max Gust SpeedMPH,PrecipitationIn, CloudCover, Events, WindDirDegrees
2013-5-1,76,55,33,37,31,21,92,56,19,30.45,30.42,30.38,10,10,10,16,3,20,0.00,2,,164
2013-5-2,67,52,37,41,33,23,85,53,20,30.55,30.47,30.42,10,10,10,21,4,26,0.00,3,,53
2013-5-3,69,54,39,42,37,33,89,61,32,30.58,30.48,30.37,10,10,10,16,6,24,0.00,1,,38
2013-5-4,68,50,32,38,33,23,96,57,17,30.42,30.36,30.28,10,10,10,17,4,22,0.00,0,,174
2013-5-5,66,49,31,39,35,30,100,67,34,30.33,30.27,30.22,10,10,9,18,6,24,0.00,0,Fog,183
2013-5-6,66,51,35,43,40,36,100,70,40,30.27,30.21,30.15,10,10,2,20,9,24,0.00,2,,186
2013-5-7,75,59,43,52,46,42,100,69,38,30.17,30.14,30.06,10,6,0,20,8,24,0.00,5,,188
2013-5-8,74,62,50,57,53,50,100,73,46,30.25,30.20,30.16,10,6,0,22,7,26,T,5,Fog,178
2013-5-9,63,58,52,57,54,52,100,92,84,30.14,30.03,29.92,10,8,1,14,6,16,0.22,8,Rain,147
2013-5-10,74,62,50,59,53,50,100,73,46,29.97,29.93,29.88,10,6,0,13,3,16,0.17,6,Fog-Rain,175
2013-5-11,57,55,52,56,53,50,100,95,89,29.95,29.81,29.69,10,7,2,21,8,25,0.21,8,Rain,164
2013-5-12,58,52,45,56,54,43,100,93,86,29.69,29.60,29.53,10,5,1,20,5,28,0.22,8,Rain,191
2013-5-13,57,47,37,44,33,27,100,66,32,30.00,29.85,29.71,10,10,10,17,6,23,0.01,4,,244
2013-5-14,55,46,37,33,30,28,79,59,38,30.01,29.98,29.94,10,10,10,16,5,20,T,5,,322
2013-5-15,63,47,31,47,34,26,93,59,25,29.99,29.88,29.68,10,9,3,25,7,33,0.16,4,Rain,204
2013-5-16,73,61,48,53,46,39,100,66,31,29.77,29.63,29.54,10,8,2,22,9,26,T,6,,242
2013-5-17,60,51,41,43,37,33,82,60,37,30.20,29.98,29.77,10,10,10,23,8,32,0.00,6,,326
2013-5-18,64,49,34,43,37,34,100,68,36,30.35,30.30,30.21,10,10,10,17,3,22,0.00,3,,127
2013-5-19,65,51,36,47,42,35,100,72,44,30.39,30.33,30.26,10,10,10,15,4,21,T,5,,167
2013-5-20,63,56,48,54,51,47,100,86,72,30.23,30.04,29.94,10,7,2,9,6,16,0.70,7,Rain,124
2013-5-21,55,52,48,52,50,46,100,89,77,30.07,30.04,30.00,10,8,0,10,4,12,0.11,8,Fog-Rain,132
2013-5-22,54,51,48,50,48,46,100,92,83,30.05,29.99,29.95,10,7,1,16,7,21,0.50,8,Rain,122
2013-5-23,64,56,47,59,53,46,100,90,80,29.96,29.87,29.81,10,6,1,16,7,21,0.02,8,Rain,171
2013-5-24,63,56,48,61,56,46,100,95,89,29.87,29.76,29.66,10,5,1,23,12,31,1.09,8,Rain,164
2013-5-25,49,47,44,47,45,43,100,96,92,29.86,29.79,29.75,10,3,1,29,15,36,0.59,8,Rain,26
2013-5-26,51,47,42,49,45,39,100,90,80,29.92,29.75,29.66,10,6,1,16,8,24,0.41,8,Rain,337
2013-5-27,65,52,39,39,36,31,93,61,28,30.17,30.02,29.91,10,10,10,23,8,30,0.00,4,,309
2013-5-28,71,53,35,41,37,30,92,57,22,30.23,30.20,30.17,10,10,10,18,3,24,0.00,3,,180
2013-5-29,56,49,42,54,50,40,100,86,71,30.23,30.14,30.00,10,5,0,13,4,16,0.12,7,Rain,147
2013-5-30,82,67,51,62,56,51,100,71,42,30.01,29.98,29.95,10,6,0,16,3,24,0.01,6,Fog,254
2013-5-31,89,71,53,69,62,53,100,73,46,30.02,29.94,29.86,10,10,10,18,3,28,0.02,4,,222